Regional Weather Roundup
Issued by NWS

Home | Current Version | Previous Version | Text Only | Print | Product List | Glossary Off
Versions: 1 2 3 4 5 6 7 8 9 10 11 12 13 14 15 16 17 18 19 20 21 22 23 24 25 26 27 28

000
ASUS45 KSLC 242210
RWRUT

UTAH REGIONAL WEATHER ROUNDUP
NATIONAL WEATHER SERVICE SALT LAKE CITY UT
400 PM MDT MON JUL 24 2017

UTZ001>011-023>025-242300-

NORTHERN UTAH

CITY           SKY/WX    TMP DP  RH WIND       PRES   REMARKS
BRIGHAM CITY   SUNNY     93  33  12 SW6       29.95F
DUGWAY         PTSUNNY   96  38  13 SE6       29.91F HX  91
HILL AFB       SUNNY     92  43  18 CALM      29.99F
LOGAN          SUNNY     93  42  17 SW6       29.96F
OGDEN          SUNNY     95  44  17 VRB6      29.94F HX  91
SALT LAKE CITY PTSUNNY   97  45  16 SW6       29.92F HX  93
TOOELE VALLEY  MOSUNNY   95  50  21 NE8       29.94F HX  92
WENDOVER       SUNNY     95  43  16 SE9       29.92F HX  91
HEBER CITY     MOSUNNY   91  37  15 S6        30.04F
WEST JORDAN    MOSUNNY   94  60  31 E6        29.97F HX  93

$$

UTZ011>015-024>027-242300-

CENTRAL/NORTHEAST UTAH

CITY           SKY/WX    TMP DP  RH WIND       PRES   REMARKS
PROVO AIRPORT  MOSUNNY   94  46  19 VRB6      29.97F HX  90
MOAB/CANYONLAN PTSUNNY   93  49  22 CALM      29.95F HX  90
DELTA          SUNNY     91  36  14 SE3       29.97F
PRICE          MOSUNNY   89  47  23 MISG      30.07F
RICHFIELD      SUNNY     82  54  36 SW13      30.06F
ROOSEVELT      MOSUNNY   90  41  18 SW5       30.04F
VERNAL         MOSUNNY   95  40  14 W6        30.02F HX  91

$$

UTZ013>016-019>022-027-242300-

SOUTHERN UTAH

CITY           SKY/WX    TMP DP  RH WIND       PRES   REMARKS
BRYCE CANYON   CLOUDY    69  53  56 N13G21    30.27R THUNDER
CEDAR CITY     LGT RAIN  76  56  49 W7        30.09S
MILFORD        SUNNY     94  43  17 VRB5      29.97F HX  90
ST GEORGE      MOCLDY    90  61  37 S26G33    29.88S
HANKSVILLE     CLOUDY    91  46  21 SE7       29.97F
KANAB          MOSUNNY   88  55  33 S15G21    30.08F
BLANDING       MOSUNNY   86  49  28 S8        30.18F

$$

REGIONAL REPORTS     COLORADO/ARIZONA

CITY           SKY/WX    TMP DP  RH WIND       PRES   REMARKS
CRAIG, CO      MOSUNNY   94  36  13 NW10      30.10F
GRAND JUNCTION MOSUNNY   93  45  19 VRB7      29.99F
RIFLE, CO      MOSUNNY   94  39  14 NW6       30.04F HX  90
MONTROSE, CO   PTSUNNY   90  47  22 NW10      30.08F
CORTEZ, CO     PTSUNNY   89  48  24 SW10      30.10F
COLORADO CITY    N/A     86  55  35 S16G23    30.08S
PAGE, AZ       PTSUNNY   89  54  30 VRB3      29.99F
GRAND CANYON   CLOUDY    76  54  46 W9G17     30.22F
KINGMAN, AZ    CLOUDY    84  62  47 SW15      29.99F
FLAGSTAFF, AZ  LGT RAIN  65  58  78 E5        30.26F

$$

REGIONAL REPORTS    NEVADA/IDAHO/WYOMING

CITY           SKY/WX    TMP DP  RH WIND       PRES   REMARKS
LAS VEGAS, NV  CLOUDY    91  63  39 W14       29.86R HX  92
ELY, NY        CLOUDY    82  45  27 SE7       30.11R
ELKO, NV       MOSUNNY   91  40  16 SW8       29.97F
POCATELLO, ID  PTSUNNY   92  35  13 NW9       29.98F
BURLEY, ID     CLOUDY    84  49  29 SW7       29.97R
FORT BRIDGER,  MOCLDY    83  36  18 CALM      30.20F
EVANSTON, WY   MOSUNNY   85  36  17 CALM      30.18F
ROCK SPRINGS,  MOSUNNY   87  33  14 S14G25    30.16F
KEMMERER, WY     N/A    N/A N/A N/A W6        30.20F

$$




USA.gov is the U.S. government's official web portal to all federal, state and local government web resources and services.